User: anonymous   Login
Location: La Silve
(44.2414°N, 5.8889°E)
Time: 22:59:44
(UTC+00:00)
Language:

USA 267 - Orbit

View from above orbital plane
View from above orbital plane
View from above satellite
View from above satellite

Ground track
Ground track

The orbit data is extracted from the following two-line orbital elements,

1 41334U 16010A   21061.19472152 0.00000000  00000-0  00000-0 0    07
2 41334 122.9978 327.3471 0005815 126.4105 233.5895 13.41421525    03
Epoch (UTC): 02 March 2021 04:40:23
Eccentricity: 0.0005815
inclination: 122.9978°
perigee height: 1099 km
apogee height: 1108 km
right ascension of ascending node: 327.3471°
argument of perigee: 126.4105°
revolutions per day: 13.41421525
mean anomaly at epoch: 233.5895°
orbit number at epoch: 0

The dashed part of the orbit path shows where the satellite is in the earth's shadow,  

DLR